Terminal Aerodrome Forecast
Issued by NWS

Home | Current Version | Previous Version | Text Only | Print | Product List | Glossary On
Versions: 1 2 3 4 5 6 7 8 9 10 11 12 13 14 15 16
000
FTUS44 KCRP 101100
TAFALI
TAF
KALI 101124Z 1012/1112 14005KT P6SM BKN110
     FM101500 15010KT P6SM VCSH SCT030 BKN150
     FM101700 15015G23KT P6SM VCTS SCT040CB BKN150
     FM110200 13007KT P6SM BKN250=

USA.gov is the U.S. government's official web portal to all federal, state and local government web resources and services.